Doylestown, PA

7:22 PM EDT on April 21, 2018 (GMT -0400)
Doylestown

Weather History for KDYL - November, 2013

Change the Weather History Date:

Saturday, November 9, 2013

  Actual Average (KTTN) Record (KTTN)
Temperature  
Mean Temperature 38 °F -  
Max Temperature 48 °F 53 °F 78 °F (1975)
Min Temperature 28 °F 35 °F 22 °F (1992)
Degree Days  
Heating Degree Days 27    
Moisture  
Dew Point 27 °F    
Average Humidity 63    
Maximum Humidity 85    
Minimum Humidity 39    
Precipitation  
Precipitation 0.00 in - - ()
Sea Level Pressure  
Sea Level Pressure 30.20 in    
Wind  
Wind Speed 4 mph (SW)    
Max Wind Speed 10 mph    
Max Gust Speed -    
Visibility 10 miles    
Events      
Averages and records for this station are not official NWS values.
T = Trace of Precipitation, MM = Missing Value Source: NWS Daily Summary

Daily Weather History Graph

Daily Weather History Graph

Search for Another Location

Airport or City:

Astronomy

Nov. 09, 2013 Rise Set
Actual Time 6:39 AM EST 4:48 PM EST
Civil Twilight 6:10 AM EST 5:17 PM EST
Nautical Twilight 5:38 AM EST 5:49 PM EST
Astronomical Twilight 5:06 AM EST 6:21 PM EST
Moon 12:14 PM EST (11/9) 11:16 PM EST (11/9)
Length of Visible Light 11h 06m
Length of Day
10h 08m
Waxing Crescent, 44% of the Moon is Illuminated
Nov 9
Waxing Crescent
Nov 10
First Quarter
Nov 17
Full
Nov 25
Last Quarter
Dec 2
New

Hourly Weather History & Observations

Time (EST) Temp. Windchill Dew Point Humidity Pressure Visibility Wind Dir Wind Speed Gust Speed Precip Events Conditions
12:54 AM 34.0 °F 29.8 °F 26.1 °F 73% 30.27 in 10.0 mi West 4.6 mph - N/A   Clear
1:54 AM 33.1 °F 30.0 °F 26.1 °F 75% 30.29 in 10.0 mi West 3.5 mph - N/A   Clear
2:54 AM 33.1 °F 30.0 °F 25.0 °F 72% 30.28 in 10.0 mi West 3.5 mph - N/A   Clear
3:54 AM 30.9 °F - 25.0 °F 79% 30.29 in 10.0 mi Calm Calm - N/A   Clear
4:54 AM 28.9 °F - 25.0 °F 85% 30.30 in 10.0 mi Calm Calm - N/A   Clear
5:54 AM 30.0 °F 26.5 °F 25.0 °F 82% 30.31 in 10.0 mi SSW 3.5 mph - N/A   Clear
6:54 AM 30.0 °F - 25.0 °F 82% 30.31 in 10.0 mi Calm Calm - N/A   Clear
7:54 AM 33.1 °F - 26.1 °F 75% 30.31 in 10.0 mi Calm Calm - N/A   Clear
8:54 AM 39.0 °F 36.8 °F 30.0 °F 70% 30.31 in 10.0 mi Variable 3.5 mph - N/A   Clear
9:54 AM 42.1 °F 39.2 °F 28.0 °F 58% 30.31 in 10.0 mi SW 4.6 mph - N/A   Clear
10:54 AM 43.0 °F 40.3 °F 28.0 °F 56% 30.29 in 10.0 mi Variable 4.6 mph - N/A   Clear
11:54 AM 46.0 °F 43.1 °F 25.0 °F 44% 30.25 in 10.0 mi SW 5.8 mph - N/A   Clear
12:54 PM 46.9 °F - 25.0 °F 42% 30.21 in 10.0 mi SW 10.4 mph - N/A   Clear
1:54 PM 48.0 °F - 24.1 °F 39% 30.18 in 10.0 mi WSW 6.9 mph - N/A   Clear
2:54 PM 48.0 °F - 25.0 °F 41% 30.16 in 10.0 mi Variable 6.9 mph - N/A   Clear
3:54 PM 46.9 °F - 25.0 °F 42% 30.14 in 10.0 mi South 5.8 mph - N/A   Clear
4:54 PM 46.0 °F 44.8 °F 27.0 °F 47% 30.13 in 10.0 mi Variable 3.5 mph - N/A   Clear
5:54 PM 45.0 °F 42.6 °F 28.0 °F 52% 30.12 in 10.0 mi South 4.6 mph - N/A   Partly Cloudy
6:54 PM 45.0 °F 42.6 °F 28.0 °F 52% 30.12 in 10.0 mi Variable 4.6 mph - N/A   Clear
7:54 PM 44.1 °F 42.5 °F 30.0 °F 58% 30.11 in 10.0 mi Variable 3.5 mph - N/A   Mostly Cloudy
8:54 PM 42.1 °F 40.2 °F 30.9 °F 65% 30.09 in 10.0 mi South 3.5 mph - N/A   Clear
9:54 PM 41.0 °F - 32.0 °F 70% 30.06 in 10.0 mi Calm Calm - N/A   Clear
10:54 PM 42.1 °F 39.2 °F 33.1 °F 70% 30.03 in 10.0 mi South 4.6 mph - N/A   Clear
11:54 PM 42.1 °F 38.4 °F 34.0 °F 73% 30.00 in 10.0 mi SSW 5.8 mph - N/A   Mostly Cloudy